Location: Aix-en-Ergny
(50.5839°N, 1.9996°E)
Time: 04:12:06
(UTC+00:00)

Cosmos 1763 Rocket - Pass Details

Date: 23 October 2019
Orbit: 733 x 779 km, 74.0° (Epoch: 18 November)

Event Time Altitude Azimuth Distance (km) Brightness Sun altitude
Rises 05:40:38 0° 329° (NNW) 3,225 6.4 -8.1°
Reaches altitude 10° 05:43:12 10° 320° (NW) 2,287 5.5 -7.6°
Maximum altitude 05:47:46 33° 258° (WSW) 1,254 4.2 -6.9°
Drops below altitude 10° 05:52:16 10° 196° (SSW) 2,247 5.9 -6.2°
Sets 05:54:47 0° 186° (S) 3,160 6.8 -5.8°
